Theta_e
299 293 290 292 294 294 292 290 288 291 294 292 291 292 295 297 296 296 296 297 297 298 301 302 304 304 304 310 320 324 328 331 331 329 329 331 330 332 333 333 331 329 328 327
294 290 295 296 296 293 291 290 288 291 294 292 291 291 294 296 296 296 297 297 298 300 301 301 302 300 302 302 304 311 322 328 331 329 330 330 331 332 333 333 332 329 327 327
291 293 296 294 291 291 290 289 288 289 291 290 287 287 291 295 296 297 298 298 298 298 299 299 299 299 301 300 301 303 307 315 327 330 330 330 330 330 329 330 331 329 327 326
292 293 293 292 290 291 286 290 292 290 287 283 286 279 287 291 293 294 296 296 295 295 297 299 301 301 302 303 304 304 303 304 309 328 327 326 326 325 328 329 330 330 327 326
290 290 291 291 292 293 289 292 290 291 287 285 284 280 284 288 289 292 292 295 295 298 299 299 301 303 302 305 306 308 303 302 305 310 326 326 324 325 325 325 328 328 327 325
291 293 293 292 292 293 294 291 290 287 286 278 283 282 283 286 289 289 293 296 299 297 298 300 301 302 303 305 308 310 303 301 306 311 316 323 323 322 322 320 324 326 326 325
289 289 292 293 289 292 291 287 279 278 277 277 282 281 286 289 289 291 294 297 297 298 298 299 300 300 301 302 305 308 311 307 304 308 312 317 319 323 322 321 322 323 323 321
284 282 289 292 290 288 288 287 281 275 276 278 281 278 284 292 292 292 297 297 298 298 299 299 300 300 301 302 303 307 310 310 311 311 312 314 316 317 318 320 319 319 320 320
284 284 291 291 291 291 288 284 289 281 275 278 281 284 290 292 292 291 293 296 296 297 298 298 300 300 300 300 301 303 306 309 313 312 311 311 312 315 315 314 315 314 314 313
288 282 289 289 291 290 288 290 283 284 274 273 278 280 283 288 289 292 292 294 296 296 297 297 298 299 299 300 301 302 302 302 305 307 308 309 310 311 310 309 307 307 307 308
289 288 284 288 287 286 286 285 287 286 284 277 275 280 285 288 291 290 292 295 295 296 296 296 297 298 298 298 298 299 299 299 299 300 301 301 302 302 301 300 299 300 299 299
290 288 282 284 288 289 288 287 287 282 280 281 281 280 289 290 292 293 294 296 296 297 296 296 297 296 295 295 295 295 295 295 296 296 296 296 296 295 294 294 294 295 295 296
291 286 279 282 286 288 286 287 288 287 284 279 277 279 291 290 292 295 295 295 296 296 295 296 295 294 294 294 294 293 293 294 295 294 294 293 293 292 292 292 293 293 293 293
294 288 285 281 284 287 283 286 287 287 281 282 282 284 288 290 292 295 295 295 295 295 295 294 294 294 294 294 293 292 293 293 293 293 292 291 290 291 291 291 291 290 291 290
291 281 284 286 286 286 284 285 287 285 287 282 286 285 288 291 291 295 295 294 295 295 294 294 293 293 292 292 292 292 292 292 292 291 290 290 290 290 289 288 288 287 287 287
291 279 283 280 287 286 283 286 287 287 287 287 287 285 291 292 292 294 295 295 295 295 294 294 294 293 292 292 291 291 291 290 290 289 288 288 288 286 286 285 285 286 285 286
287 283 279 276 283 282 278 284 286 287 289 288 284 289 291 290 293 293 295 296 295 295 294 294 293 292 291 290 291 290 290 289 287 285 285 284 284 284 284 284 285 284 284 285
285 283 283 277 278 272 283 288 290 289 290 291 290 291 291 292 293 295 296 296 295 295 295 293 292 290 289 289 289 289 288 286 284 284 283 283 283 282 283 283 283 283 283 283
291 286 283 280 280 282 285 286 287 286 286 291 291 292 291 292 291 292 294 297 296 295 294 293 291 289 288 287 287 285 284 283 283 282 282 282 281 280 281 280 281 281 280 280
289 289 285 283 279 275 282 285 290 291 283 286 291 291 290 290 285 289 292 294 293 293 293 290 288 286 285 284 284 284 282 281 280 280 281 281 281 279 277 279 278 279 278 281
283 284 283 283 279 281 285 286 290 281 282 283 287 289 289 287 289 289 290 289 289 288 286 286 285 282 282 283 283 281 279 278 278 278 278 278 277 276 277 277 277 275 275 277
282 281 281 283 280 277 285 286 285 286 284 284 286 287 286 286 287 286 286 285 285 284 283 282 280 279 279 280 281 279 277 277 276 275 275 273 272 274 276 271 271 271 271 270
279 283 281 284 283 285 284 284 287 288 287 284 284 285 287 285 284 284 283 282 282 281 282 280 278 276 276 276 278 277 274 274 272 269 269 268 269 271 271 268 268 270 269 269
282 284 281 281 283 283 285 285 286 286 285 284 284 285 286 284 284 283 281 280 280 280 279 278 276 275 274 274 274 274 273 271 267 266 267 268 268 268 268 271 271 268 268 268
281 283 280 279 282 282 284 285 285 284 283 283 284 285 285 283 282 282 280 279 278 278 278 278 278 276 273 273 270 270 269 267 268 266 268 268 268 266 268 271 268 271 271 271
280 281 281 279 285 285 284 284 285 283 282 283 282 282 283 283 282 281 279 278 276 275 276 275 274 272 270 269 268 266 265 265 263 266 267 266 266 266 268 269 270 275 277 279
Wind_Speed
9 8 13 13 9 6 8 9 6 6 2 3 7 7 9 9 7 8 8 8 8 8 7 8 8 7 5 3 6 8 9 10 10 8 7 6 7 6 6 6 8 8 7 7
4 10 9 9 10 7 4 11 6 5 5 2 4 10 8 8 7 8 10 8 8 7 8 7 8 4 1 2 5 4 7 9 10 8 7 6 6 4 6 6 8 9 9 8
6 5 5 7 2 5 3 4 5 4 5 2 3 7 8 9 10 9 9 8 5 6 7 6 7 6 3 2 5 5 5 4 7 10 7 4 2 3 4 5 6 8 10 9
5 1 7 5 6 5 3 2 9 10 7 4 3 6 4 7 7 7 7 7 6 4 5 5 5 5 5 3 4 5 5 4 5 9 9 9 8 8 5 5 5 6 9 9
4 7 6 5 6 5 2 6 6 3 2 2 3 1 6 3 5 8 9 8 5 7 8 8 6 5 4 3 2 3 5 5 6 5 9 9 8 7 8 4 6 6 7 8
4 3 2 3 5 2 9 8 6 2 4 1 7 7 6 5 6 1 6 7 8 6 6 8 6 4 4 2 3 2 3 3 4 4 4 8 9 8 4 4 4 6 4 5
5 3 2 2 8 4 4 7 2 1 1 6 7 3 10 3 1 4 8 8 8 7 7 7 7 6 5 4 4 4 5 4 2 3 4 1 1 7 7 4 2 2 3 2
8 4 8 6 4 8 6 6 6 7 5 4 4 7 9 2 5 7 8 9 8 7 7 6 6 6 5 5 6 6 6 6 7 6 7 7 7 5 4 4 3 3 3 3
7 3 3 5 3 4 5 5 3 8 3 5 6 7 6 4 4 4 7 7 8 7 7 6 6 6 6 5 6 7 7 7 6 6 7 7 6 7 6 6 5 4 4 3
4 7 3 2 2 2 2 4 4 2 5 3 6 4 6 7 9 8 8 8 8 7 6 6 6 6 5 6 6 8 8 7 7 7 6 6 7 7 7 7 8 7 6 6
4 6 1 2 6 6 2 3 3 4 5 6 2 7 3 1 9 12 9 8 9 8 7 6 6 6 5 6 7 7 7 7 7 7 7 8 8 9 9 8 7 6 6 6
0 6 5 4 2 1 2 4 5 5 5 2 5 7 1 2 3 9 9 9 8 8 7 6 6 7 6 6 7 7 7 7 6 6 7 7 7 8 8 7 7 7 7 6
8 1 5 3 3 2 5 4 5 2 4 5 7 8 2 1 3 7 10 8 7 8 8 7 7 7 6 6 7 7 7 6 6 6 7 8 8 8 7 7 7 7 6 7
7 5 10 13 7 8 7 8 7 5 3 8 10 6 4 5 6 6 8 9 8 7 7 7 7 7 6 6 7 7 7 6 6 7 8 8 7 7 6 6 7 7 6 6
8 7 4 4 3 5 2 11 12 11 20 8 21 12 7 8 10 10 8 8 9 9 10 8 8 7 7 6 7 7 7 6 6 8 8 7 6 6 6 6 6 6 6 6
1 1 3 3 4 6 2 7 15 19 19 14 16 15 6 6 6 9 11 11 11 10 9 8 8 8 7 6 7 8 6 6 7 8 7 6 6 6 6 6 6 6 6 6
6 7 4 3 1 5 6 17 11 11 12 15 18 25 4 5 9 10 11 13 14 12 13 12 11 10 7 7 8 8 7 7 8 7 6 6 6 6 6 6 6 6 6 5
7 6 3 4 2 4 7 2 16 19 13 16 15 13 6 7 9 9 10 16 12 13 15 13 12 10 8 7 8 9 8 7 7 7 6 6 6 5 5 5 5 5 3 4
4 5 4 4 4 8 10 6 7 9 16 16 16 14 6 4 3 6 2 7 10 10 11 12 12 12 9 9 8 10 9 8 7 6 5 4 3 3 4 5 5 4 3 4
5 5 5 4 5 12 4 4 3 9 15 6 9 12 8 7 4 6 4 4 8 12 13 15 14 12 11 7 8 10 8 7 6 4 4 4 3 5 5 4 4 2 2 5
5 3 10 7 4 9 5 6 1 8 7 1 2 2 5 5 3 4 8 10 10 13 15 14 13 11 7 7 9 10 8 7 4 3 2 5 5 3 3 3 2 3 4 3
8 7 5 4 3 12 7 3 12 5 1 4 2 1 4 7 6 7 8 9 12 14 12 12 13 9 6 5 8 9 8 5 4 5 5 4 3 3 3 4 3 4 3 3
4 6 7 9 8 1 4 2 3 2 2 2 3 2 6 8 6 7 8 8 8 10 10 9 11 10 6 5 3 8 5 5 6 4 3 3 3 3 3 3 4 3 3 2
3 3 3 4 0 4 5 2 3 3 3 3 2 5 7 8 10 10 8 9 8 7 9 9 10 9 7 4 6 6 6 5 4 1 3 3 2 3 3 2 2 2 3 3
4 7 6 3 2 3 6 5 2 2 2 3 3 6 8 10 8 10 9 8 8 8 5 6 8 8 8 7 7 5 4 3 2 1 2 1 2 2 2 2 2 2 3 3
5 7 5 5 5 5 2 0 7 7 6 6 6 4 5 9 13 11 10 8 8 8 6 6 5 7 7 6 6 4 4 3 1 1 2 2 1 3 4 5 7 10 13 13
Wind_Direction
199 206 200 199 219 234 173 181 164 118 56 155 228 253 242 202 188 206 252 243 200 210 213 178 162 171 189 195 192 185 169 172 168 182 190 187 191 184 192 184 181 180 185 188
153 215 199 202 209 233 267 185 160 67 109 132 221 254 255 251 236 196 206 241 225 193 180 135 134 135 140 220 228 231 201 177 177 169 188 203 187 186 195 186 181 181 186 191
165 170 185 136 135 157 253 186 144 134 138 273 325 277 231 237 213 218 212 211 219 183 160 151 139 142 147 226 249 250 244 234 176 171 165 154 170 168 182 194 194 189 186 189
244 134 172 156 169 169 150 30 106 122 148 196 172 269 244 205 200 204 214 206 220 152 86 79 87 98 85 34 360 342 320 281 260 168 172 172 196 215 202 197 189 185 184 187
176 149 155 179 177 174 151 104 112 139 116 65 202 70 253 51 207 216 210 210 160 103 115 110 90 84 77 60 326 257 241 252 254 229 174 177 194 232 239 206 177 174 178 184
70 331 53 86 32 97 137 99 77 99 96 345 212 163 275 193 210 141 132 136 123 124 114 102 99 123 92 61 21 317 192 236 257 224 224 171 187 188 234 226 178 166 173 183
131 113 94 169 83 8 173 153 117 87 69 214 335 184 240 219 97 160 156 141 131 136 145 144 144 106 73 54 68 13 67 46 338 358 2 302 217 170 202 261 86 148 147 170
155 196 171 180 162 172 210 187 152 179 182 211 355 233 251 142 88 102 107 127 135 137 115 111 107 94 80 52 56 60 64 61 34 44 42 43 57 65 68 82 80 68 77 100
153 110 32 29 18 126 202 208 109 104 0 75 209 267 278 129 150 153 131 137 159 144 135 128 99 87 89 68 46 68 64 83 78 49 39 38 45 57 65 64 67 71 74 64
129 106 357 341 325 61 157 166 83 335 129 227 253 243 236 210 206 186 176 180 151 135 118 114 102 88 72 73 68 67 70 72 73 71 69 70 67 65 64 58 56 56 54 56
116 103 2 137 209 162 161 198 206 151 151 169 195 259 237 179 192 172 180 182 149 155 146 133 114 104 98 87 75 71 69 70 64 65 69 68 66 66 66 64 50 56 55 50
16 111 138 174 158 96 356 222 170 142 231 211 143 268 355 48 65 145 162 149 148 141 137 133 131 123 107 96 88 77 68 68 64 71 77 73 70 66 66 61 52 46 51 40
177 194 105 43 21 3 217 196 269 4 74 200 138 260 271 45 90 144 139 134 133 135 134 137 128 128 122 110 94 86 77 71 69 72 71 65 65 66 63 58 53 47 50 46
144 152 181 211 228 141 180 196 202 189 134 213 220 207 199 202 184 150 148 145 146 156 155 155 144 134 130 119 115 105 88 84 85 73 73 67 60 62 61 55 53 47 40 45
165 181 162 76 119 65 153 179 178 201 225 177 237 234 203 199 192 192 154 155 164 178 173 164 151 137 127 114 104 96 85 90 85 80 70 69 64 59 57 51 45 46 44 37
62 128 106 41 60 105 105 212 201 210 226 237 253 272 147 219 166 153 179 170 187 187 168 157 148 142 139 135 119 109 96 80 77 78 73 64 61 58 52 47 40 41 34 25
136 131 106 176 60 86 301 217 196 208 216 211 232 242 185 182 177 179 181 188 195 182 169 164 154 139 133 133 122 116 107 93 84 81 70 63 56 52 40 32 36 31 21 12
130 111 76 132 87 188 247 313 201 204 215 220 251 254 194 211 216 193 195 193 190 174 170 154 145 134 126 116 103 104 99 95 90 79 66 51 49 41 29 28 26 14 4 340
89 121 79 148 212 311 283 189 162 173 243 225 236 252 217 161 70 259 191 183 182 162 150 145 133 127 120 116 117 111 100 94 84 76 68 58 53 34 23 24 3 351 346 335
57 43 127 155 198 209 278 316 125 90 270 240 220 245 219 131 205 249 190 122 117 117 128 127 120 111 112 120 119 110 104 97 87 74 60 45 38 32 16 343 333 323 338 318
143 152 193 197 224 279 199 193 134 143 241 45 46 67 135 182 223 112 89 70 86 105 112 110 105 109 113 119 117 111 107 93 95 76 56 35 24 3 322 328 338 306 301 291
164 156 187 193 228 259 162 26 163 185 144 153 124 58 119 114 106 93 91 101 111 113 106 109 109 107 90 89 115 115 103 112 99 49 36 4 343 334 332 326 304 307 302 293
192 186 174 186 207 191 194 114 97 86 111 128 122 143 142 137 138 133 127 116 110 116 117 109 114 107 76 51 71 119 116 75 54 37 0 317 308 303 308 322 307 315 314 321
238 160 166 86 357 154 195 152 165 133 137 153 205 183 162 153 143 136 128 128 121 120 124 131 129 125 122 98 78 90 86 76 82 49 276 281 315 333 315 303 301 326 319 321
190 137 166 273 221 286 235 226 150 166 137 135 146 165 159 134 134 135 135 136 136 131 127 136 139 136 136 123 99 82 91 85 94 239 263 358 20 326 304 288 273 279 248 256
185 174 162 212 198 149 154 237 164 174 201 191 161 144 138 147 151 146 150 147 145 143 134 119 115 127 121 115 117 113 90 85 100 95 39 7 341 354 344 341 329 324 310 311